Location: Maccacari
(45.1333°N, 11.1333°E)
Time: 02:55:10
(UTC+00:00)

Altair - Pass Details

Date: 26 January 2021
Orbit: 1501 x 1682 km, 47.2° (Epoch: 01 March)

Event Time Altitude Azimuth Distance (km) Brightness Sun altitude
Rises 10:24:36 0° 294° (WNW) 4,940 9.8 24.7°
Reaches altitude 10° 10:27:58 10° 288° (WNW) 3,948 9.4 24.8°
Maximum altitude 10:37:16 43° 222° (SW) 2,197 9.1 25.2°
Drops below altitude 10° 10:46:22 10° 155° (SSE) 3,853 11.2 25.6°
Sets 10:49:38 0° 148° (SSE) 4,813 11.2 25.7°
